Year,Month,Day,Hour,Minute,Value (Times are PST for temperature in C)
2008,10,26,00,00,6.10
2008,10,26,00,01,6.20
2008,10,26,00,02,6.20
2008,10,26,00,03,6.20
2008,10,26,00,04,6.20
2008,10,26,00,05,6.20
2008,10,26,00,06,6.20
2008,10,26,00,07,6.20
2008,10,26,00,08,6.20
2008,10,26,00,09,6.20
2008,10,26,00,10,6.10
2008,10,26,00,11,6.10
2008,10,26,00,12,6.10
2008,10,26,00,13,6.10
2008,10,26,00,14,6.10
2008,10,26,00,15,6.10
2008,10,26,00,16,6.10
2008,10,26,00,17,6.20
2008,10,26,00,18,6.20
2008,10,26,00,19,6.10
2008,10,26,00,20,6.10
2008,10,26,00,21,6.10
2008,10,26,00,22,6.10
2008,10,26,00,23,6.10
2008,10,26,00,24,6.10
2008,10,26,00,25,6.10
2008,10,26,00,26,6.10
2008,10,26,00,27,6.20
2008,10,26,00,28,6.20
2008,10,26,00,29,6.20
2008,10,26,00,30,6.20
2008,10,26,00,31,6.20
2008,10,26,00,32,6.20
2008,10,26,00,33,6.30
2008,10,26,00,34,6.30
2008,10,26,00,35,6.30
2008,10,26,00,36,6.30
2008,10,26,00,37,6.40
2008,10,26,00,38,6.40
2008,10,26,00,39,6.40
2008,10,26,00,40,6.40
2008,10,26,00,41,6.40
2008,10,26,00,42,6.40
2008,10,26,00,43,6.40
2008,10,26,00,44,6.40
2008,10,26,00,45,6.40
2008,10,26,00,46,6.40
2008,10,26,00,47,6.40
2008,10,26,00,48,6.40
2008,10,26,00,49,6.40
2008,10,26,00,50,6.40
2008,10,26,00,51,6.40
2008,10,26,00,52,6.40
2008,10,26,00,53,6.40
2008,10,26,00,54,6.40
2008,10,26,00,55,6.50
2008,10,26,00,56,6.60
2008,10,26,00,57,6.60
2008,10,26,00,58,6.60
2008,10,26,00,59,6.60
2008,10,26,02,00,6.60
2008,10,26,02,01,6.60
2008,10,26,02,02,6.60
2008,10,26,02,03,6.60
2008,10,26,02,04,6.60
2008,10,26,02,05,6.60
2008,10,26,02,06,6.60
2008,10,26,02,07,6.60
2008,10,26,02,08,6.60
2008,10,26,02,09,6.60
2008,10,26,02,10,6.60
2008,10,26,02,11,6.60
2008,10,26,02,12,6.60
2008,10,26,02,13,6.60
2008,10,26,02,14,6.60
2008,10,26,02,15,6.60
2008,10,26,02,16,6.60
2008,10,26,02,17,6.60
2008,10,26,02,18,6.60
2008,10,26,02,19,6.60
2008,10,26,02,20,6.70
2008,10,26,02,21,6.70
2008,10,26,02,22,6.70
2008,10,26,02,23,6.70
2008,10,26,02,24,6.70
2008,10,26,02,25,6.70
2008,10,26,02,26,6.70
2008,10,26,02,27,6.70
2008,10,26,02,28,6.70
2008,10,26,02,29,6.70
2008,10,26,02,30,6.70
2008,10,26,02,31,6.70
2008,10,26,02,32,6.70
2008,10,26,02,33,6.70
2008,10,26,02,34,6.70
2008,10,26,02,35,6.70
2008,10,26,02,36,6.70
2008,10,26,02,37,6.70
2008,10,26,02,38,6.70
2008,10,26,02,39,6.70
2008,10,26,02,40,6.70
2008,10,26,02,41,6.70
2008,10,26,02,42,6.70
2008,10,26,02,43,6.70
2008,10,26,02,44,6.80
2008,10,26,02,45,6.80
2008,10,26,02,46,6.80
2008,10,26,02,47,6.80
2008,10,26,02,48,6.80
2008,10,26,02,49,6.80
2008,10,26,02,50,6.80
2008,10,26,02,51,6.80
2008,10,26,02,52,6.80
2008,10,26,02,53,6.80
2008,10,26,02,54,6.80
2008,10,26,02,55,6.80
2008,10,26,02,56,6.90
2008,10,26,02,57,6.90
2008,10,26,02,58,6.90
2008,10,26,02,59,6.90
2008,10,26,03,49,6.50
2008,10,26,03,50,6.40
2008,10,26,03,51,6.40
2008,10,26,03,52,6.40
2008,10,26,03,53,6.40
2008,10,26,03,54,6.40
2008,10,26,03,55,6.40
2008,10,26,03,56,6.40
2008,10,26,03,57,6.40
2008,10,26,03,58,6.40
2008,10,26,03,59,6.40
2008,10,26,04,00,6.40
2008,10,26,04,01,6.40
2008,10,26,04,02,6.40
2008,10,26,04,03,6.40
2008,10,26,04,04,6.40
2008,10,26,04,05,6.40
2008,10,26,04,06,6.40
2008,10,26,04,07,6.40
2008,10,26,04,08,6.40
2008,10,26,04,09,6.40
2008,10,26,04,10,6.40
2008,10,26,04,11,6.50
2008,10,26,04,12,6.60
2008,10,26,04,13,6.60
2008,10,26,04,14,6.60
2008,10,26,04,15,6.60
2008,10,26,04,16,6.60
2008,10,26,04,17,6.60
2008,10,26,04,18,6.60
2008,10,26,04,19,6.60
2008,10,26,04,20,6.60
2008,10,26,04,21,6.60
2008,10,26,04,22,6.60
2008,10,26,04,23,6.60
2008,10,26,04,24,6.60
2008,10,26,04,25,6.60
2008,10,26,04,26,6.60
2008,10,26,04,27,6.60
2008,10,26,04,28,6.60
2008,10,26,04,29,6.60
2008,10,26,04,30,6.60
2008,10,26,04,31,6.60
2008,10,26,04,32,6.60
2008,10,26,04,33,6.60
2008,10,26,04,34,6.60
2008,10,26,04,35,6.60
2008,10,26,04,36,6.60
2008,10,26,04,37,6.60
2008,10,26,04,38,6.60
2008,10,26,04,39,6.60
2008,10,26,04,40,6.60
2008,10,26,04,41,6.60
2008,10,26,04,42,6.50
2008,10,26,04,43,6.40
2008,10,26,04,44,6.40
2008,10,26,04,45,6.40
2008,10,26,04,46,6.40
2008,10,26,04,47,6.40
2008,10,26,04,48,6.40
2008,10,26,04,49,6.40
2008,10,26,04,50,6.40
2008,10,26,04,51,6.40
2008,10,26,04,52,6.40
2008,10,26,04,53,6.40
2008,10,26,04,54,6.40
2008,10,26,04,55,6.30
2008,10,26,04,56,6.30
2008,10,26,04,57,6.30
2008,10,26,04,58,6.30
2008,10,26,04,59,6.30
2008,10,26,05,00,6.30
2008,10,26,05,01,6.30
2008,10,26,05,02,6.30
2008,10,26,05,03,6.30
2008,10,26,05,04,6.20
2008,10,26,05,05,6.20
2008,10,26,05,06,6.20
2008,10,26,05,07,6.20
2008,10,26,05,08,6.20
2008,10,26,05,09,6.20
2008,10,26,05,10,6.20
2008,10,26,05,11,6.20
2008,10,26,05,12,6.20
2008,10,26,05,13,6.20
2008,10,26,05,14,6.20
2008,10,26,05,15,6.20
2008,10,26,05,16,6.20
2008,10,26,05,17,6.20
2008,10,26,05,18,6.20
2008,10,26,05,19,6.20
2008,10,26,05,20,6.20
2008,10,26,05,21,6.20
2008,10,26,05,22,6.20
2008,10,26,05,23,6.20
2008,10,26,05,24,6.20
2008,10,26,05,25,6.20
2008,10,26,05,26,6.10
2008,10,26,05,27,6.10
2008,10,26,05,28,6.10
2008,10,26,05,29,6.10
2008,10,26,05,30,6.10
2008,10,26,05,31,6.10
2008,10,26,05,32,6.10
2008,10,26,05,33,6.10
2008,10,26,05,34,6.10
2008,10,26,05,35,6.10
2008,10,26,05,36,6.10
2008,10,26,05,37,6.00
2008,10,26,05,38,6.00
2008,10,26,05,39,6.00
2008,10,26,05,40,6.00
2008,10,26,05,41,6.00
2008,10,26,05,42,6.00
2008,10,26,05,43,6.00
2008,10,26,05,44,6.00
2008,10,26,05,45,5.90
2008,10,26,05,46,5.90
2008,10,26,05,47,5.90
2008,10,26,05,48,5.90
2008,10,26,05,49,5.90
2008,10,26,05,50,5.90
2008,10,26,05,51,5.90
2008,10,26,05,52,5.90
2008,10,26,05,53,5.90
2008,10,26,05,54,5.90
2008,10,26,05,55,5.90
2008,10,26,05,56,5.90
2008,10,26,05,57,5.90
2008,10,26,05,58,5.90
2008,10,26,05,59,5.90
2008,10,26,06,00,5.90
2008,10,26,06,01,5.90
2008,10,26,06,02,5.90
2008,10,26,06,03,5.90
2008,10,26,06,04,5.80
2008,10,26,06,05,5.80
2008,10,26,06,06,5.80
2008,10,26,06,07,5.80
2008,10,26,06,08,5.80
2008,10,26,06,09,5.80
2008,10,26,06,10,5.80
2008,10,26,06,11,5.80
2008,10,26,06,12,5.80
2008,10,26,06,13,5.80
2008,10,26,06,14,5.80
2008,10,26,06,15,5.70
2008,10,26,06,16,5.70
2008,10,26,06,17,5.70
2008,10,26,06,18,5.70
2008,10,26,06,19,5.70
2008,10,26,06,20,5.70
2008,10,26,06,21,5.70
2008,10,26,06,22,5.70
2008,10,26,06,23,5.70
2008,10,26,06,24,5.70
2008,10,26,06,25,5.70
2008,10,26,06,26,5.80
2008,10,26,06,27,5.80
2008,10,26,06,28,5.80
2008,10,26,06,29,5.80
2008,10,26,06,30,5.80
2008,10,26,06,31,5.80
2008,10,26,06,32,5.80
2008,10,26,06,33,5.80
2008,10,26,06,34,5.80
2008,10,26,06,35,5.80
2008,10,26,06,36,5.80
2008,10,26,06,37,5.80
2008,10,26,06,38,5.80
2008,10,26,06,39,5.80
2008,10,26,06,40,5.90
2008,10,26,06,41,5.90
2008,10,26,06,42,5.90
2008,10,26,06,43,6.00
2008,10,26,06,44,6.00
2008,10,26,06,45,6.00
2008,10,26,06,46,6.00
2008,10,26,06,47,6.00
2008,10,26,06,48,6.00
2008,10,26,06,49,6.00
2008,10,26,06,50,6.00
2008,10,26,06,51,6.00
2008,10,26,06,52,6.00
2008,10,26,06,53,5.90
2008,10,26,06,54,5.90
2008,10,26,06,55,5.90
2008,10,26,06,56,5.90
2008,10,26,06,57,5.90
2008,10,26,06,58,5.80
2008,10,26,06,59,5.80
2008,10,26,07,00,5.80
2008,10,26,07,01,5.80
2008,10,26,07,02,5.70
2008,10,26,07,03,5.70
2008,10,26,07,04,5.70
2008,10,26,07,05,5.70
2008,10,26,07,06,5.70
2008,10,26,07,07,5.70
2008,10,26,07,08,5.70
2008,10,26,07,09,5.70
2008,10,26,07,10,5.70
2008,10,26,07,11,5.70
2008,10,26,07,12,5.70
2008,10,26,07,13,5.70
2008,10,26,07,14,5.60
2008,10,26,07,15,5.60
2008,10,26,07,16,5.60
2008,10,26,07,17,5.60
2008,10,26,07,18,5.60
2008,10,26,07,19,5.60
2008,10,26,07,20,5.60
2008,10,26,07,21,5.60
2008,10,26,07,22,5.60
2008,10,26,07,23,5.60
2008,10,26,07,24,5.60
2008,10,26,07,25,5.60
2008,10,26,07,26,5.60
2008,10,26,07,27,5.60
2008,10,26,07,28,5.60
2008,10,26,07,29,5.60
2008,10,26,07,30,5.60
2008,10,26,07,31,5.60
2008,10,26,07,32,5.60
2008,10,26,07,33,5.70
2008,10,26,07,34,5.70
2008,10,26,07,35,5.70
2008,10,26,07,36,5.70
2008,10,26,07,37,5.70
2008,10,26,07,38,5.70
2008,10,26,07,39,5.70
2008,10,26,07,40,5.70
2008,10,26,07,41,5.70
2008,10,26,07,42,5.70
2008,10,26,07,43,5.70
2008,10,26,07,44,5.60
2008,10,26,07,45,5.60
2008,10,26,07,46,5.60
2008,10,26,07,47,5.70
2008,10,26,07,48,5.70
2008,10,26,07,49,5.70
2008,10,26,07,50,5.60
2008,10,26,07,51,5.60
2008,10,26,07,52,5.60
2008,10,26,07,53,5.60
2008,10,26,07,54,5.60
2008,10,26,07,55,5.60
2008,10,26,07,56,5.70
2008,10,26,07,57,5.70
2008,10,26,07,58,5.70
2008,10,26,07,59,5.70
2008,10,26,08,00,5.70
2008,10,26,08,01,5.70
2008,10,26,08,02,5.70
2008,10,26,08,03,5.70
2008,10,26,08,04,5.80
2008,10,26,08,05,5.80
2008,10,26,08,06,5.80
2008,10,26,08,07,5.80
2008,10,26,08,08,5.90
2008,10,26,08,09,5.90
2008,10,26,08,10,5.90
2008,10,26,08,11,5.90
2008,10,26,08,12,5.90
2008,10,26,08,13,5.90
2008,10,26,08,14,5.80
2008,10,26,08,15,5.80
2008,10,26,08,16,5.80
2008,10,26,08,17,5.80
2008,10,26,08,18,5.80
2008,10,26,08,19,5.80
2008,10,26,08,20,5.80
2008,10,26,08,21,5.80
2008,10,26,08,22,5.80
2008,10,26,08,23,5.80
2008,10,26,08,24,5.80
2008,10,26,08,25,5.80
2008,10,26,08,26,5.80
2008,10,26,08,27,5.80
2008,10,26,08,28,5.80
2008,10,26,08,29,5.80
2008,10,26,08,30,5.80
2008,10,26,08,31,5.80
2008,10,26,08,32,5.80
2008,10,26,08,33,5.80
2008,10,26,08,34,5.80
2008,10,26,08,35,5.80
2008,10,26,08,36,5.80
2008,10,26,08,37,5.80
2008,10,26,08,38,5.80
2008,10,26,08,39,5.80
2008,10,26,08,40,5.80
2008,10,26,08,41,5.90
2008,10,26,08,42,5.90
2008,10,26,08,43,5.90
2008,10,26,08,44,5.90
2008,10,26,08,45,5.90
2008,10,26,08,46,6.00
2008,10,26,08,47,6.00
2008,10,26,08,48,6.00
2008,10,26,08,49,6.10
2008,10,26,08,50,6.20
2008,10,26,08,51,6.20
2008,10,26,08,52,6.20
2008,10,26,08,53,6.20
2008,10,26,08,54,6.30
2008,10,26,08,55,6.30
2008,10,26,08,56,6.40
2008,10,26,08,57,6.40
2008,10,26,08,58,6.40
2008,10,26,08,59,6.40
2008,10,26,09,00,6.60
2008,10,26,09,01,6.60
2008,10,26,09,02,6.60
2008,10,26,09,03,6.60
2008,10,26,09,04,6.70
2008,10,26,09,05,6.70
2008,10,26,09,06,6.70
2008,10,26,09,07,6.70
2008,10,26,09,08,6.70
2008,10,26,09,09,6.80
2008,10,26,09,10,6.80
2008,10,26,09,11,6.80
2008,10,26,09,12,6.80
2008,10,26,09,13,6.80
2008,10,26,09,14,6.80
2008,10,26,09,15,6.90
2008,10,26,09,16,6.90
2008,10,26,09,17,6.90
2008,10,26,09,18,6.90
2008,10,26,09,19,6.90
2008,10,26,09,20,7.00
2008,10,26,09,21,7.00
2008,10,26,09,22,7.00
2008,10,26,09,23,7.00
2008,10,26,09,24,7.10
2008,10,26,09,25,7.10
2008,10,26,09,26,7.10
2008,10,26,09,27,7.10
2008,10,26,09,28,7.20
2008,10,26,09,29,7.20
2008,10,26,09,30,7.20
2008,10,26,09,31,7.20
2008,10,26,09,32,7.30
2008,10,26,09,33,7.30
2008,10,26,09,34,7.30
2008,10,26,09,35,7.30
2008,10,26,09,36,7.30
2008,10,26,09,37,7.30
2008,10,26,09,38,7.30
2008,10,26,09,39,7.40
2008,10,26,09,40,7.40
2008,10,26,09,41,7.40
2008,10,26,09,42,7.40
2008,10,26,09,43,7.50
2008,10,26,09,44,7.50
2008,10,26,09,45,7.50
2008,10,26,09,46,7.60
2008,10,26,09,47,7.60
2008,10,26,09,48,7.60
2008,10,26,09,49,7.70
2008,10,26,09,50,7.70
2008,10,26,09,51,7.70
2008,10,26,09,52,7.80
2008,10,26,09,53,7.80
2008,10,26,09,54,7.80
2008,10,26,09,55,7.80
2008,10,26,09,56,7.80
2008,10,26,09,57,7.90
2008,10,26,09,58,7.90
2008,10,26,09,59,7.90
2008,10,26,10,00,7.90
2008,10,26,10,01,8.00
2008,10,26,10,02,8.00
2008,10,26,10,03,8.00
2008,10,26,10,04,8.00
2008,10,26,10,05,8.00
2008,10,26,10,06,8.00
2008,10,26,10,07,8.10
2008,10,26,10,08,8.10
2008,10,26,10,09,8.10
2008,10,26,10,10,8.10
2008,10,26,10,11,8.20
2008,10,26,10,12,8.20
2008,10,26,10,13,8.20
2008,10,26,10,14,8.20
2008,10,26,10,15,8.30
2008,10,26,10,16,8.30
2008,10,26,10,17,8.40
2008,10,26,10,18,8.40
2008,10,26,10,19,8.40
2008,10,26,10,20,8.50
2008,10,26,10,21,8.50
2008,10,26,10,22,8.60
2008,10,26,10,23,8.60
2008,10,26,10,24,8.60
2008,10,26,10,25,8.70
2008,10,26,10,26,8.70
2008,10,26,10,27,8.70
2008,10,26,10,28,8.70
2008,10,26,10,29,8.70
2008,10,26,10,30,8.80
2008,10,26,10,31,8.80
2008,10,26,10,32,8.90
2008,10,26,10,33,8.90
2008,10,26,10,34,8.90
2008,10,26,10,35,8.90
2008,10,26,10,36,9.00
2008,10,26,10,37,9.00
2008,10,26,10,38,9.00
2008,10,26,10,39,9.00
2008,10,26,10,40,9.10
2008,10,26,10,41,9.10
2008,10,26,10,42,9.10
2008,10,26,10,43,9.10
2008,10,26,10,44,9.10
2008,10,26,10,45,9.10
2008,10,26,10,46,9.20
2008,10,26,10,47,9.20
2008,10,26,10,48,9.20
2008,10,26,10,49,9.20
2008,10,26,10,50,9.20
2008,10,26,10,51,9.20
2008,10,26,10,52,9.20
2008,10,26,10,53,9.20
2008,10,26,10,54,9.20
2008,10,26,10,55,9.30
2008,10,26,10,56,9.30
2008,10,26,10,57,9.30
2008,10,26,10,58,9.30
2008,10,26,10,59,9.40
2008,10,26,11,00,9.40
2008,10,26,11,01,9.40
2008,10,26,11,02,9.40
2008,10,26,11,03,9.40
2008,10,26,11,04,9.40
2008,10,26,11,05,9.50
2008,10,26,11,06,9.50
2008,10,26,11,07,9.60
2008,10,26,11,08,9.60
2008,10,26,11,09,9.60
2008,10,26,11,10,9.60
2008,10,26,11,11,9.60
2008,10,26,11,12,9.70
2008,10,26,11,13,9.70
2008,10,26,11,14,9.70
2008,10,26,11,15,9.70
2008,10,26,11,16,9.70
2008,10,26,11,17,9.70
2008,10,26,11,18,9.80
2008,10,26,11,19,9.80
2008,10,26,11,20,9.80
2008,10,26,11,21,9.80
2008,10,26,11,22,9.90
2008,10,26,11,23,9.90
2008,10,26,11,24,9.90
2008,10,26,11,25,9.90
2008,10,26,11,26,9.90
2008,10,26,11,27,9.90
2008,10,26,11,28,9.90
2008,10,26,11,29,9.90
2008,10,26,11,30,9.90
2008,10,26,11,31,9.90
2008,10,26,11,32,9.90
2008,10,26,11,33,9.90
2008,10,26,11,34,9.90
2008,10,26,11,35,9.90
2008,10,26,11,36,9.90
2008,10,26,11,37,9.90
2008,10,26,11,38,9.90
2008,10,26,11,39,10.10
2008,10,26,11,40,10.10
2008,10,26,11,41,10.10
2008,10,26,11,42,10.10
2008,10,26,11,43,10.20
2008,10,26,11,44,10.20
2008,10,26,11,45,10.20
2008,10,26,11,46,10.20
2008,10,26,11,47,10.30
2008,10,26,11,48,10.30
2008,10,26,11,49,10.30
2008,10,26,11,50,10.30
2008,10,26,11,51,10.30
2008,10,26,11,52,10.30
2008,10,26,11,53,10.40
2008,10,26,11,54,10.40
2008,10,26,11,55,10.40
2008,10,26,11,56,10.40
2008,10,26,11,57,10.40
2008,10,26,11,58,10.40
2008,10,26,11,59,10.40
2008,10,26,12,00,10.40
2008,10,26,12,01,10.40
2008,10,26,12,02,10.40
2008,10,26,12,03,10.40
2008,10,26,12,04,10.40
2008,10,26,12,05,10.40
2008,10,26,12,06,10.40
2008,10,26,12,07,10.40
2008,10,26,12,08,10.40
2008,10,26,12,09,10.40
2008,10,26,12,10,10.40
2008,10,26,12,11,10.40
2008,10,26,12,12,10.40
2008,10,26,12,13,10.40
2008,10,26,12,14,10.50
2008,10,26,12,15,10.60
2008,10,26,12,16,10.60
2008,10,26,12,17,10.60
2008,10,26,12,18,10.60
2008,10,26,12,19,10.60
2008,10,26,12,20,10.60
2008,10,26,12,21,10.60
2008,10,26,12,22,10.70
2008,10,26,12,23,10.70
2008,10,26,12,24,10.70
2008,10,26,12,25,10.70
2008,10,26,12,26,10.80
2008,10,26,12,27,10.90
2008,10,26,12,28,10.90
2008,10,26,12,29,10.90
2008,10,26,12,30,10.90
2008,10,26,12,31,10.90
2008,10,26,12,32,11.10
2008,10,26,12,33,11.10
2008,10,26,12,34,11.10
2008,10,26,12,35,11.10
2008,10,26,12,36,11.10
2008,10,26,12,37,11.10
2008,10,26,12,38,11.10
2008,10,26,12,39,11.10
2008,10,26,12,40,11.20
2008,10,26,12,41,11.20
2008,10,26,12,42,11.20
2008,10,26,12,43,11.20
2008,10,26,12,44,11.30
2008,10,26,12,45,11.30
2008,10,26,12,46,11.20
2008,10,26,12,47,11.20
2008,10,26,12,48,11.20
2008,10,26,12,49,11.10
2008,10,26,12,50,11.10
2008,10,26,12,51,11.10
2008,10,26,12,52,11.10
2008,10,26,12,53,11.20
2008,10,26,12,54,11.20
2008,10,26,12,55,11.20
2008,10,26,12,56,11.20
2008,10,26,12,57,11.20
2008,10,26,12,58,11.30
2008,10,26,12,59,11.40
2008,10,26,13,00,11.40
2008,10,26,13,01,11.40
2008,10,26,13,02,11.40
2008,10,26,13,03,11.40
2008,10,26,13,04,11.40
2008,10,26,13,05,11.30
2008,10,26,13,06,11.30
2008,10,26,13,07,11.30
2008,10,26,13,08,11.40
2008,10,26,13,09,11.40
2008,10,26,13,10,11.40
2008,10,26,13,11,11.40
2008,10,26,13,12,11.50
2008,10,26,13,13,11.60
2008,10,26,13,14,11.60
2008,10,26,13,15,11.40
2008,10,26,13,16,11.40
2008,10,26,13,17,11.40
2008,10,26,13,18,11.40
2008,10,26,13,19,11.40
2008,10,26,13,20,11.40
2008,10,26,13,21,11.40
2008,10,26,13,22,11.50
2008,10,26,13,23,11.60
2008,10,26,13,24,11.60
2008,10,26,13,25,11.70
2008,10,26,13,26,11.80
2008,10,26,13,27,11.80
2008,10,26,13,28,11.80
2008,10,26,13,29,11.80
2008,10,26,13,30,11.80
2008,10,26,13,31,11.80
2008,10,26,13,32,11.80
2008,10,26,13,33,11.80
2008,10,26,13,34,11.80
2008,10,26,13,35,11.80
2008,10,26,13,36,11.80
2008,10,26,13,37,11.80
2008,10,26,13,38,11.80
2008,10,26,13,39,11.80
2008,10,26,13,40,11.80
2008,10,26,13,41,11.90
2008,10,26,13,42,11.80
2008,10,26,13,43,11.80
2008,10,26,13,44,11.80
2008,10,26,13,45,11.80
2008,10,26,13,46,11.70
2008,10,26,13,47,11.70
2008,10,26,13,48,11.70
2008,10,26,13,49,11.60
2008,10,26,13,50,11.60
2008,10,26,13,51,11.60
2008,10,26,13,52,11.60
2008,10,26,13,53,11.60
2008,10,26,13,54,11.60
2008,10,26,13,55,11.60
2008,10,26,13,56,11.60
2008,10,26,13,57,11.60
2008,10,26,13,58,11.60
2008,10,26,13,59,11.60
2008,10,26,14,00,11.70
2008,10,26,14,01,11.70
2008,10,26,14,02,11.70
2008,10,26,14,03,11.70
2008,10,26,14,04,11.70
2008,10,26,14,05,11.60
2008,10,26,14,06,11.60
2008,10,26,14,07,11.60
2008,10,26,14,08,11.60
2008,10,26,14,09,11.60
2008,10,26,14,10,11.60
2008,10,26,14,11,11.60
2008,10,26,14,12,11.70
2008,10,26,14,13,11.70
2008,10,26,14,14,11.80
2008,10,26,14,15,11.80
2008,10,26,14,16,11.90
2008,10,26,14,17,11.90
2008,10,26,14,18,11.90
2008,10,26,14,19,11.90
2008,10,26,14,20,12.00
2008,10,26,14,21,12.00
2008,10,26,14,22,12.10
2008,10,26,14,23,12.10
2008,10,26,14,24,12.00
2008,10,26,14,25,12.00
2008,10,26,14,26,12.00
2008,10,26,14,27,12.00
2008,10,26,14,28,12.10
2008,10,26,14,29,12.10
2008,10,26,14,30,12.10
2008,10,26,14,31,12.10
2008,10,26,14,32,12.10
2008,10,26,14,33,12.10
2008,10,26,14,34,12.10
2008,10,26,14,35,12.10
2008,10,26,14,36,12.00
2008,10,26,14,37,12.00
2008,10,26,14,38,12.00
2008,10,26,14,39,12.00
2008,10,26,14,40,12.00
2008,10,26,14,41,12.00
2008,10,26,14,42,11.90
2008,10,26,14,43,11.90
2008,10,26,14,44,11.90
2008,10,26,14,45,11.90
2008,10,26,14,46,12.00
2008,10,26,14,47,12.10
2008,10,26,14,48,12.10
2008,10,26,14,49,12.00
2008,10,26,14,50,12.00
2008,10,26,14,51,11.90
2008,10,26,14,52,11.90
2008,10,26,14,53,11.90
2008,10,26,14,54,12.00
2008,10,26,14,55,12.00
2008,10,26,14,56,11.90
2008,10,26,14,57,11.90
2008,10,26,14,58,11.90
2008,10,26,14,59,11.90
2008,10,26,15,00,11.90
2008,10,26,15,01,11.90
2008,10,26,15,02,11.90
2008,10,26,15,03,11.90
2008,10,26,15,04,12.00
2008,10,26,15,05,12.00
2008,10,26,15,06,12.10
2008,10,26,15,07,12.10
2008,10,26,15,08,12.10
2008,10,26,15,09,12.10
2008,10,26,15,10,12.10
2008,10,26,15,11,12.10
2008,10,26,15,12,12.20
2008,10,26,15,13,12.20
2008,10,26,15,14,12.20
2008,10,26,15,15,12.20
2008,10,26,15,16,12.10
2008,10,26,15,17,12.00
2008,10,26,15,18,12.00
2008,10,26,15,19,12.00
2008,10,26,15,20,12.00
2008,10,26,15,21,12.10
2008,10,26,15,22,12.10
2008,10,26,15,23,12.10
2008,10,26,15,24,12.10
2008,10,26,15,25,12.10
2008,10,26,15,26,12.00
2008,10,26,15,27,12.00
2008,10,26,15,28,12.00
2008,10,26,15,29,12.10
2008,10,26,15,30,12.10
2008,10,26,15,31,12.10
2008,10,26,15,32,12.00
2008,10,26,15,33,12.00
2008,10,26,15,34,12.00
2008,10,26,15,35,12.00
2008,10,26,15,36,12.00
2008,10,26,15,37,12.00
2008,10,26,15,38,12.00
2008,10,26,15,39,12.00
2008,10,26,15,40,12.00
2008,10,26,15,41,12.00
2008,10,26,15,42,12.00
2008,10,26,15,43,12.00
2008,10,26,15,44,12.10
2008,10,26,15,45,12.10
2008,10,26,15,46,12.00
2008,10,26,15,47,12.10
2008,10,26,15,48,12.10
2008,10,26,15,49,12.10
2008,10,26,15,50,12.00
2008,10,26,15,51,12.10
2008,10,26,15,52,12.10
2008,10,26,15,53,12.10
2008,10,26,15,54,12.10
2008,10,26,15,55,12.10
2008,10,26,15,56,12.10
2008,10,26,15,57,12.10
2008,10,26,15,58,12.10
2008,10,26,15,59,12.10
2008,10,26,16,00,12.20
2008,10,26,16,01,12.10
2008,10,26,16,02,12.10
2008,10,26,16,03,12.10
2008,10,26,16,04,12.10
2008,10,26,16,05,12.10
2008,10,26,16,06,12.10
2008,10,26,16,07,12.10
2008,10,26,16,08,12.10
2008,10,26,16,09,12.10
2008,10,26,16,10,12.10
2008,10,26,16,11,12.00
2008,10,26,16,12,12.00
2008,10,26,16,13,12.00
2008,10,26,16,14,12.00
2008,10,26,16,15,11.90
2008,10,26,16,16,11.90
2008,10,26,16,17,11.90
2008,10,26,16,18,11.90
2008,10,26,16,19,11.90
2008,10,26,16,20,11.90
2008,10,26,16,21,11.90
2008,10,26,16,22,12.00
2008,10,26,16,23,12.00
2008,10,26,16,24,12.00
2008,10,26,16,25,11.90
2008,10,26,16,26,11.90
2008,10,26,16,27,11.80
2008,10,26,16,28,11.80
2008,10,26,16,29,11.80
2008,10,26,16,30,11.80
2008,10,26,16,31,11.80
2008,10,26,16,32,11.80
2008,10,26,16,33,11.80
2008,10,26,16,34,11.80
2008,10,26,16,35,11.80
2008,10,26,16,36,11.80
2008,10,26,16,37,11.80
2008,10,26,16,38,11.80
2008,10,26,16,39,11.80
2008,10,26,16,40,11.80
2008,10,26,16,41,11.90
2008,10,26,16,42,11.90
2008,10,26,16,43,11.90
2008,10,26,16,44,11.90
2008,10,26,16,45,11.90
2008,10,26,16,46,11.90
2008,10,26,16,47,11.90
2008,10,26,16,48,11.90
2008,10,26,16,49,11.90
2008,10,26,16,50,11.90
2008,10,26,16,51,11.90
2008,10,26,16,52,11.90
2008,10,26,16,53,11.90
2008,10,26,16,54,11.90
2008,10,26,16,55,11.80
2008,10,26,16,56,11.80
2008,10,26,16,57,11.80
2008,10,26,16,58,11.80
2008,10,26,16,59,11.80
2008,10,26,17,00,11.80
2008,10,26,17,01,11.80
2008,10,26,17,02,11.80
2008,10,26,17,03,11.80
2008,10,26,17,04,11.80
2008,10,26,17,05,11.80
2008,10,26,17,06,11.80
2008,10,26,17,07,11.80
2008,10,26,17,08,11.70
2008,10,26,17,09,11.70
2008,10,26,17,10,11.70
2008,10,26,17,11,11.70
2008,10,26,17,12,11.70
2008,10,26,17,13,11.70
2008,10,26,17,14,11.70
2008,10,26,17,15,11.70
2008,10,26,17,16,11.70
2008,10,26,17,17,11.60
2008,10,26,17,18,11.60
2008,10,26,17,19,11.60
2008,10,26,17,20,11.60
2008,10,26,17,21,11.60
2008,10,26,17,22,11.60
2008,10,26,17,23,11.60
2008,10,26,17,24,11.60
2008,10,26,17,25,11.60
2008,10,26,17,26,11.60
2008,10,26,17,27,11.60
2008,10,26,17,28,11.60
2008,10,26,17,29,11.60
2008,10,26,17,30,11.60
2008,10,26,17,31,11.60
2008,10,26,17,32,11.60
2008,10,26,17,33,11.40
2008,10,26,17,34,11.40
2008,10,26,17,35,11.40
2008,10,26,17,36,11.40
2008,10,26,17,37,11.40
2008,10,26,17,38,11.40
2008,10,26,17,39,11.30
2008,10,26,17,40,11.30
2008,10,26,17,41,11.30
2008,10,26,17,42,11.20
2008,10,26,17,43,11.20
2008,10,26,17,44,11.10
2008,10,26,17,45,11.10
2008,10,26,17,46,11.10
2008,10,26,17,47,11.00
2008,10,26,17,48,10.90
2008,10,26,17,49,10.90
2008,10,26,17,50,10.90
2008,10,26,17,51,10.80
2008,10,26,17,52,10.80
2008,10,26,17,53,10.70
2008,10,26,17,54,10.70
2008,10,26,17,55,10.60
2008,10,26,17,56,10.60
2008,10,26,17,57,10.60
2008,10,26,17,58,10.60
2008,10,26,17,59,10.50
2008,10,26,18,00,10.40
2008,10,26,18,01,10.40
2008,10,26,18,02,10.40
2008,10,26,18,03,10.40
2008,10,26,18,04,10.40
2008,10,26,18,05,10.40
2008,10,26,18,06,10.40
2008,10,26,18,07,10.30
2008,10,26,18,08,10.30
2008,10,26,18,09,10.30
2008,10,26,18,10,10.30
2008,10,26,18,11,10.30
2008,10,26,18,12,10.20
2008,10,26,18,13,10.20
2008,10,26,18,14,10.20
2008,10,26,18,15,10.20
2008,10,26,18,16,10.20
2008,10,26,18,17,10.20
2008,10,26,18,18,10.20
2008,10,26,18,19,10.20
2008,10,26,18,20,10.20
2008,10,26,18,21,10.10
2008,10,26,18,22,10.10
2008,10,26,18,23,10.10
2008,10,26,18,24,10.10
2008,10,26,18,25,10.10
2008,10,26,18,26,10.10
2008,10,26,18,27,10.10
2008,10,26,18,28,10.10
2008,10,26,18,29,10.10
2008,10,26,18,30,10.10
2008,10,26,18,31,10.10
2008,10,26,18,32,10.10
2008,10,26,18,33,10.10
2008,10,26,18,34,10.10
2008,10,26,18,35,10.10
2008,10,26,18,36,10.10
2008,10,26,18,37,10.10
2008,10,26,18,38,10.10
2008,10,26,18,39,10.10
2008,10,26,18,40,10.10
2008,10,26,18,41,10.10
2008,10,26,18,42,10.10
2008,10,26,18,43,10.10
2008,10,26,18,44,10.10
2008,10,26,18,45,10.00
2008,10,26,18,46,9.90
2008,10,26,18,47,9.90
2008,10,26,18,48,9.90
2008,10,26,18,49,9.90
2008,10,26,18,50,9.90
2008,10,26,18,51,9.90
2008,10,26,18,52,9.90
2008,10,26,18,53,9.90
2008,10,26,18,54,9.90
2008,10,26,18,55,9.90
2008,10,26,18,56,9.80
2008,10,26,18,57,9.80
2008,10,26,18,58,9.80
2008,10,26,18,59,9.70
2008,10,26,19,00,9.70
2008,10,26,19,01,9.70
2008,10,26,19,02,9.70
2008,10,26,19,03,9.70
2008,10,26,19,04,9.70
2008,10,26,19,05,9.70
2008,10,26,19,06,9.60
2008,10,26,19,07,9.60
2008,10,26,19,08,9.60
2008,10,26,19,09,9.60
2008,10,26,19,10,9.60
2008,10,26,19,11,9.60
2008,10,26,19,12,9.60
2008,10,26,19,13,9.60
2008,10,26,19,14,9.60
2008,10,26,19,15,9.60
2008,10,26,19,16,9.60
2008,10,26,19,17,9.60
2008,10,26,19,18,9.60
2008,10,26,19,19,9.50
2008,10,26,19,20,9.50
2008,10,26,19,21,9.60
2008,10,26,19,22,9.60
2008,10,26,19,23,9.60
2008,10,26,19,24,9.60
2008,10,26,19,25,9.60
2008,10,26,19,26,9.60
2008,10,26,19,27,9.60
2008,10,26,19,28,9.70
2008,10,26,19,29,9.70
2008,10,26,19,30,9.70
2008,10,26,19,31,9.70
2008,10,26,19,32,9.70
2008,10,26,19,33,9.70
2008,10,26,19,34,9.70
2008,10,26,19,35,9.70
2008,10,26,19,36,9.70